Zurück zum Katalog

STARLINK-5764

AktivKommunikationVLEO
NORAD 55602·PAYLOAD·🇺🇸 United States

Gestartet Feb 12, 2023 von Cape Canaveral Space Force Station

Loading…

Nächste Überflüge (nächste 24 Stunden)

TLE

AktuellSource: CelesTrak SupGP

Epoche: Sep 14, 2026, 21:01 UTC

1 55602C 23020AK  26257.87618056  .00003366  00000+0  12191-3 0  2579
2 55602  43.0045   6.0426 0001983 278.3802 309.3510 15.27581417    18

Verfolge STARLINK-5764 in Echtzeit mit AllMySat

Download on the App Store